sat.trackr.live / text

‹ back to catalog

STARLINK-2380

NORAD 47799 · 2021-018N

PAYLOAD ACTIVE UNKNOWN

§ Identity

Operator
Country
US
Launch date
2021-03-11
Launch site
AFETR
Launch vehicle
Mass (kg)
RCS (m²)

Purposes: comms

External: N2YO · Heavens-Above · Gunter

§ Orbital elements

Epoch: 2026-09-20T03:09:31.161888Z

Period
94.01 min
Inclination
53.1606°
Eccentricity
0.0001343
Mean motion
15.31691903 rev/d
Perigee alt
469.8 km
Apogee alt
471.7 km
Semi-major
6,848.9 km
B*
-1.1012e-5
RAAN
47.2488°
Arg perigee
93.1184°
Mean anomaly
266.9971°
Rev number
30,665

§ Raw data

STARLINK-23801 47799U 21018N   26263.13161067 -.00000707  00000+0 -11012-4 0  99962 47799  53.1606  47.2488 0001343  93.1184 266.9971 15.31691903306657

JSON: /api/v1/satellites/47799 · /tle

For live sub-satellite position, see the globe view (requires WebGL).

§ Visibility from observer

Set your observer location to see the next 7 days of passes ≥ 10°. The values pass through the URL so the page stays shareable.

No JS? Fill the form by hand. The geolocation button needs JavaScript.